Location: Namasale
(1.5000°N, 32.6167°E)
Time: 18:27:06
(UTC+00:00)

Vanguard 1 Rocket - Pass Details

Date: 19 April 2021
Orbit: 651 x 4225 km, 34.3° (Epoch: 17 May)

Event Time Altitude Azimuth Distance (km) Brightness Sun altitude
Rises 03:36:34 0° 224° (SW) 8,461 11.8 -2.7°
Reaches altitude 10° 03:44:40 10° 213° (SSW) 7,387 11.6 -0.7°
Maximum altitude 04:03:58 28° 162° (SSE) 5,105 11.3 4.0°
Drops below altitude 10° 04:17:14 10° 109° (ESE) 5,171 12.5 7.3°
Sets 04:21:23 0° 97° (E) 5,681 13.1 8.3°
